Regional Weather Roundup
Issued by NWS New Orleans/Baton Rouge, LA

Home | Current Version | Previous Version | Graphics & Text | Print | Product List | Glossary On
Versions: 1 2 3 4 5 6 7 8 9 10 11 12 13 14 15 16 17 18 19 20 21 22 23 24 25 26 27 28 29 30 31 32 33 34 35 36 37 38 39 40 41 42 43 44 45 46 47 48 49 50
987
ASUS44 KLIX 260905
RWRLIX
NEW ORLEANS REGIONAL WEATHER ROUNDUP
NATIONAL WEATHER SERVICE NEW ORLEANS LA
300 AM CST WED NOV 26 2014

NOTE: "FAIR" INDICATES FEW OR NO CLOUDS BELOW 12,000 FEET WITH NO
      SIGNIFICANT WEATHER AND/OR OBSTRUCTIONS TO VISIBILITY.
      SKY/WX - SKY CONDITION AND SIGNIFICANT WEATHER.
      TMP - AIR TEMPERATURE.     DP    - DEWPOINT TEMPERATURE.
      RH  - RELATIVE HUMIDITY.   PRES  - PRESSURE.
      HI  - HEAT INDEX.          WCI   - WIND CHILL INDEX.

*  THESE STATIONS ARE NOT NWS OR FAA STATIONS AND ARE NOT UNDER
   NWS QUALITY CONTROL.

LAZ038-040-048-061>063-065>067-069-261000-
SOUTHEAST LOUISIANA

CITY           SKY/WX    TMP DP  RH WIND       PRES   REMARKS
N.O. AUDUBON     N/A     44  36  74 MISG        N/A
N.O. INTL ARPT CLEAR     40  34  79 W3        30.21S
N.O. LAKEFRONT CLEAR     48  36  63 N9        30.21F
N.O. DOWNTOWN*   N/A     46  34  61 N5        30.21S
SLIDELL        CLEAR     33  29  85 CALM      30.20F
BATON ROUGE    CLEAR     34  31  88 CALM      30.20F
BOOTHVILLE     CLEAR     49  34  56 N12G17    30.21S
BELLE CHASSE   CLEAR     36  32  85 S3        30.21S
BOGALUSA*        N/A     32  30  92 CALM      30.22S
NEW ROADS*     FOG       34  33  98 CALM      30.21R VSB 3/4
GONZALES*        N/A     33  33 100 CALM      30.20F
HAMMOND*       CLEAR     32  30  93 CALM      30.22F
HOUMA*         CLEAR     35  34  97 CALM      30.22S
PORT FOURCHON* NOT AVBL

$$

MSZ070-080>082-261000-
SOUTHERN MISSISSIPPI

CITY           SKY/WX    TMP DP  RH WIND       PRES   REMARKS
MCCOMB         CLEAR     32  28  85 CALM      30.18F
GULFPORT       CLEAR     38  32  79 CALM      30.19F
BILOXI         CLEAR     41  32  71 N6        30.19F
PASCAGOULA     CLEAR     39  29  67 NW5       30.19S

$$

COASTAL OBSERVATIONS
LAKE AND NEARSHORE STATIONS

STATION/POSITION TIME  TEMP    WIND        PRES    WAVE
                       AIR SEA DIR/SP/G            HT/PER
                 (UTC) (F)     (DEG/KT/KT) (MB)    (FT/S)
PASCAGOULA       0900   43     340/  7/ 11 1021.8
WAVELAND YACHT   0900   42     320/  7/  9 1021.6
GRAND ISLE       0900   50 59  350/ 11/ 14 1023.4
SOUTHWEST PASS   0900   53                 1022.8
NEW CANAL        0900   49 54  350/  7/  8 1023.3
SHELL BEACH      0900   49 52  340/ 11/ 12 1022.8

OFFSHORE STATIONS

STATION/POSITION TIME  TEMP    WIND        PRES    WAVE
                       AIR SEA DIR/SP/G            HT/PER
                 (UTC) (F)     (DEG/KT/KT) (MB)    (FT/S)
64 S DAUPHIN ISL 0830   56 71  340/ 23/ 27 1021.7    6/ 6

$$




USA.gov is the U.S. government's official web portal to all federal, state and local government web resources and services.